User: anonymous   Login
Location: Wildcat Hills Observatory
(41.6350°N, 103.6812°W)
Time: 09:29:31
(UTC-06:00)
Language:

Cosmos 1634 Rocket - Orbit

View from above orbital plane
View from above orbital plane
View from above satellite
View from above satellite

Ground track
Ground track

The orbit data is extracted from the following two-line orbital elements,

1 15598U 85022B   16274.55629383  .00000151  00000-0  13795-3 0  9991
2 15598  82.9350 300.0858 0023515 114.2195 354.6766 13.76545712584746
Epoch (UTC): 30 September 2016 13:21:03
Eccentricity: 0.0023515
inclination: 82.9350°
perigee height: 959 km
apogee height: 993 km
right ascension of ascending node: 300.0858°
argument of perigee: 114.2195°
revolutions per day: 13.76545712
mean anomaly at epoch: 354.6766°
orbit number at epoch: 58474

The dashed part of the orbit path shows where the satellite is in the earth's shadow,  

DLR